This is the latest recevied weather packets stored in our database for station/object DB0MW-13. If no packets are shown the sender has not sent any weather packets the latest 1 day(s).
| Time | Temp. | Humidity | Pressure | Rain* | Wind** | Luminosity | Snow |
|---|---|---|---|---|---|---|---|
| 1777986001 | 21.67° C | 53% | 1008.1 hPa | 0 mm | 0.89 m/s, 352° | - | - |
| 1777985700 | 21.67° C | 53% | 1008.1 hPa | 0 mm | 0.89 m/s, 345° | - | - |
| 1777985400 | 21.67° C | 52% | 1008.2 hPa | 0 mm | 0.45 m/s, 336° | - | - |
| 1777985100 | 21.67° C | 51% | 1008.2 hPa | 0 mm | 0.89 m/s, 312° | - | - |
| 1777984800 | 21.67° C | 52% | 1008.2 hPa | 0 mm | 0.45 m/s, 327° | - | - |
| 1777984500 | 21.67° C | 52% | 1008.5 hPa | 0 mm | 0.45 m/s, 300° | - | - |
| 1777984200 | 21.67° C | 52% | 1008.4 hPa | 0 mm | 0.45 m/s, 268° | - | - |
| 1777983900 | 21.67° C | 52% | 1008.4 hPa | 0 mm | 0.45 m/s, 244° | - | - |
| 1777983600 | 21.67° C | 52% | 1008.3 hPa | 0 mm | 0.45 m/s, 268° | - | - |
| 1777983300 | 21.67° C | 52% | 1008.6 hPa | 0 mm | 0.45 m/s, 2° | - | - |
| 1777983000 | 21.67° C | 51% | 1008.4 hPa | 0 mm | 0.45 m/s, 326° | - | - |
| 1777982700 | 21.67° C | 50% | 1008.4 hPa | 0 mm | 0.45 m/s, 329° | - | - |
| 1777982401 | 21.67° C | 51% | 1008.8 hPa | 0 mm | 0.45 m/s, 235° | - | - |
| 1777982101 | 21.67° C | 50% | 1008.5 hPa | 0 mm | 0.45 m/s, 308° | - | - |
| 1777981801 | 22.22° C | 51% | 1008.7 hPa | 0 mm | 0.45 m/s, 274° | - | - |
| 1777981501 | 22.22° C | 48% | 1008.6 hPa | 0 mm | 0.45 m/s, 252° | - | - |
| 1777981201 | 22.22° C | 51% | 1008.5 hPa | 0 mm | 0.89 m/s, 203° | - | - |
| 1777980901 | 22.22° C | 51% | 1008.5 hPa | 0 mm | 0.89 m/s, 204° | - | - |
| 1777980601 | 21.67° C | 51% | 1008.6 hPa | 0 mm | 0.89 m/s, 212° | - | - |
| 1777980301 | 22.22° C | 51% | 1008.8 hPa | 0 mm | 0.89 m/s, 229° | - | - |
| 1777980001 | 22.22° C | 51% | 1008.7 hPa | 0 mm | 0 m/s | - | - |
| 1777979701 | 22.22° C | 50% | 1008.6 hPa | 0 mm | 0.45 m/s, 322° | - | - |
| 1777979400 | 22.22° C | 51% | 1008.9 hPa | 0 mm | 0.45 m/s, 301° | - | - |
| 1777979101 | 22.22° C | 50% | 1008.9 hPa | 0 mm | 0.45 m/s, 17° | - | - |
| 1777978800 | 22.22° C | 51% | 1009.1 hPa | 0 mm | 0.45 m/s, 354° | - | - |
* Rain latest hour (hover to see other rain measurements)
** Current wind speed in m/s (hover to see current wind gust speed)